Volver al catálogo

STARLINK-5527

ActivoComunicacionesVLEO
NORAD 56497·PAYLOAD·🇺🇸 United States

Lanzado May 10, 2023 desde Vandenberg Space Force Base

Loading…

Próximos Pases (próximas 24 horas)

TLE

ActualizadoSource: CelesTrak SupGP

Época: Sep 14, 2026, 20:53 UTC

1 56497C 23064BB  26257.87062500 -.00052765  00000+0 -44221-2 0  2574
2 56497  70.0016 347.3405 0003563 272.4458  68.3398 14.98354308    15

Sigue STARLINK-5527 en tiempo real con AllMySat

Download on the App Store